Weather in Peleduy

Russia / Sakha (Yakutia) Republic     59°37′54″N   112°45′05″E
temp.,
°C
wind,
m/s
gust,
m/s
humid.,
%
clouds,
%
prec.,
mm/h
press.,
hPa
HPBL,
m
22 april, thu
thu2200:00−14wsw119737 0.0 102710
03:00−18wsw119966 0.0 103011
06:00−16sw119998 0.1 103223
09:00−8sw129199 0.2 1033231
12:00−4wsw2381100 0.2 1034981
15:00−2w3473100 0.6 10341373
18:00−1w357397 0.4 10341157
21:00−6sw229390 0.6 103616
23 april, fri
fri2300:00−10sw299242 0.0 1038119
03:00−8sw3119193 0.0 1037276
06:00−6sw5158998 0.0 1036578
09:00−4wsw61494100 0.3 10351036
12:00−1wsw71294100 0.9 10341169
15:000w61193100 1.7 10341105
18:000w51191100 0.6 10351046
21:00−1w4118899 0.7 1036788
24 april, sat
sat2400:00−2w4109598 0.1 1038522
03:00−3wsw31096100 0.2 1038454
06:00−3wsw3997100 0.3 1039406
09:00−1wsw4791100 0.4 1039636
12:00+1wsw4687100 0.3 1038941
15:00+2wsw358390 0.5 10361034
18:00+1sw3589100 0.1 1035652
21:00−2ssw119681 0.1 103310
25 april, sun
sun2500:00−7sw1198100 0.0 103211
03:00−6se0097100 0.0 103011
06:00−6ne1198100 0.0 102712
09:00−1ne1286100 0.0 1024180
12:00+2ne2483100 0.0 1021716
15:00+3nne2481100 0.0 1019849
18:00+2nne1492100 0.0 1018185
21:00−1nnw1197100 0.1 101913
26 april, mon
mon2600:00−1n2696100 0.0 1019143
03:00−1n2595100 0.0 1018129
06:00−2n2597100 0.0 1018125
09:00+1nne259198 0.0 1018427
12:00+3nne347595 0.2 10181033
15:00+4nne3475100 0.4 1018885
18:00+3n2480100 0.1 1019688
21:000nnw2395100 0.3 102178